Location: Unspecified
(40.7945°N, 111.1337°W)
Time: 20:34:15
(UTC-06:00)

Resurs 1-4 Rocket - Pass Details

Date: 23 March 2019
Orbit: 800 x 814 km, 98.6° (Epoch: 16 October)

Event Time Altitude Azimuth Distance (km) Brightness Sun altitude
Rises 03:49:02 0° 6° (N) 3,333 5.9 -37.8°
Reaches altitude 10° 03:51:28 10° 1° (N) 2,395 5.0 -37.5°
Enters shadow 03:52:42 17° 355° (N) 1,945 4.4 -37.3°
